TIME,DELAY(SENSOR),PRES,OXYGEN,RAWTEMP,T(OPTODE),TCPHASE,FLUOR,BETA(BETA700),BETA(BETA412),BETA(BETA440),CDOM,C(CSC),ED(ED412.20),ED(ED444.00),ED(ED489.60),ED(ED554.30),LU(LU412.10),LU(LU443.90),LU(LU489.70),LU(LU554.70),COMP,TILTX,TILTY,CHECK
1344050908,5807,904.6300048828125000,35.8136482238769500,556.5255737304688000,4.5935230255126950,56.1207008361816400,56,101,102,78,81,15567,0,0,0,0,2147121929,2147777481,2147574125,2147573202,3584,3,13,32943
1344054504,5807,987.5999755859375000,35.8097801208496100,567.9605102539062000,4.2389221191406250,56.2334594726562500,55,100,101,79,83,15566,0,0,0,0,2147122578,2147778057,2147575789,2147572553,790,3,13,11146
1344058104,5811,998.1900024414062000,39.3078117370605500,568.8540039062500000,4.2111678123474120,55.7088394165039060,55,99,102,78,82,15565,0,0,0,0,2147123072,2147774290,2147572736,2147573229,3366,3,13,58264
1344061704,5808,999.9899902343750000,40.3077011108398440,569.1890869140625000,4.2007560729980470,55.5638694763183600,55,99,100,79,83,15561,0,0,0,0,2147124324,2147776429,2147577289,2147576018,656,3,13,58040
1344065304,5811,993.4299926757812000,41.8418006896972660,570.4390258789062000,4.1619191169738770,55.3518981933593750,55,98,100,80,83,15563,0,0,0,0,2147121664,2147776292,2147574171,2147570907,3253,3,13,57836
1344068904,5809,1005.8300170898438000,41.8366394042968750,570.2968750000000000,4.1663341522216800,55.3448486328125000,54,99,100,78,83,15563,0,0,0,0,2147124461,2147775003,2147575798,2147572013,42,3,13,65469
1344072504,5807,1007.7399902343750000,41.5930709838867200,570.2324218750000000,4.1683387756347660,55.3846588134765600,55,109,101,79,82,15561,0,0,0,0,2147120877,2147777746,2147572754,2147569645,3295,3,13,64005
1344076104,5810,1008.3599853515625000,41.4384002685546900,570.1948852539062000,4.1695017814636230,55.4064292907714840,55,99,101,79,83,15561,0,0,0,0,2147127030,2147774052,2147572571,2147571044,508,3,13,47016
1344079704,5807,1011.0599975585938000,41.8742294311523440,570.5333862304688000,4.1589832305908200,55.3415603637695300,55,98,100,78,84,15558,0,0,0,0,2147122112,2147778624,2147574116,2147569764,181,3,13,27091
1344083304,5808,1014.2000122070312000,41.3860588073730500,569.9564819335938000,4.1769118309021000,55.4070816040039060,54,100,101,77,82,15561,0,0,0,0,2147122697,2147778029,2147574189,2147574948,191,3,13,16519
1344086904,5809,1015.2600097656250000,41.0302200317382800,570.3131713867188000,4.1658291816711430,55.4679603576660160,55,100,101,77,83,15549,0,0,0,0,2147122541,2147778688,2147577014,2147574537,206,3,13,36350
1344090504,5808,1021.7899780273438000,41.3570518493652340,570.1046142578125000,4.1723117828369140,55.4166717529296900,55,99,101,78,82,15549,0,0,0,0,2147123200,2147779017,2147575515,2147573787,3587,3,13,52768
1344094104,5810,1017.7899780273438000,40.7673797607421900,569.8367919921875000,4.1806340217590330,55.4954681396484400,55,99,102,77,83,15547,0,0,0,0,2147120128,2147779163,2147572297,2147572086,3281,3,13,42111
1344097704,5809,1018.5300292968750000,40.7049407958984400,570.1046752929688000,4.1723079681396480,55.5147018432617200,55,98,101,78,84,15547,0,0,0,0,2147124004,2147778834,2147571565,2147571437,282,3,13,38732
1344101304,5811,1020.0399780273438000,40.3968811035156250,570.0983276367188000,4.1725058555603030,55.5571403503418000,55,104,101,78,82,15548,0,0,0,0,2147121819,2147781403,2147573010,2147572918,207,3,13,9044
1344104904,5808,1020.7399902343750000,40.7874717712402340,569.9357910156250000,4.1775569915771480,55.4947891235351560,55,98,100,78,83,15540,0,0,0,0,2147120393,2147774454,2147571995,2147573997,170,3,13,22494
1344108504,5810,1015.8200073242188000,40.3129615783691400,570.4797973632812000,4.1606497764587400,55.5768394470214840,55,101,101,77,82,15547,0,0,0,0,2147121773,2147778130,2147568886,2147570486,3476,3,13,31262
1344112104,5810,1016.3099975585938000,40.4995307922363300,570.6072998046875000,4.1566867828369140,55.5497283935546900,55,104,101,78,84,15546,0,0,0,0,2147124233,2147776100,2147575588,2147571538,67,3,13,56378
1344115704,5809,1015.6500244140625000,41.4587097167968750,571.0576171875000000,4.1426930427551270,55.4085617065429700,55,98,101,79,82,15547,0,0,0,0,2147122496,2147774884,2147568466,2147571766,3555,3,13,58528
1344119304,5809,1017.2299804687500000,41.4147300720214840,571.0468139648438000,4.1430258750915530,55.4201087951660160,55,99,101,77,83,15547,0,0,0,0,2147122889,2147775424,2147568859,2147570816,322,3,13,32228
1344122904,5810,1019.0800170898438000,41.2474403381347660,570.8090209960938000,4.1504168510437010,55.4372482299804700,56,99,100,78,83,15544,0,0,0,0,2147120694,2147778688,2147576210,2147572864,219,3,13,28308
1344126504,5809,1019.1900024414062000,41.5878295898437500,571.2120971679688000,4.1378879547119140,55.3909301757812500,56,99,101,78,84,15545,0,0,0,0,2147123785,2147776704,2147570669,2147571291,3515,3,13,12516
1344130104,5809,1025.6199951171875000,41.4556617736816400,570.5103149414062000,4.1597042083740230,55.4080810546875000,55,109,101,77,82,15545,0,0,0,0,2147123776,2147780534,2147574153,2147572937,246,3,13,58353
1344133704,5810,1023.4400024414062000,40.7778816223144500,570.0858154296875000,4.1728940010070800,55.5033607482910160,55,100,100,76,84,15544,0,0,0,0,2147122322,2147777545,2147576100,2147570852,217,3,13,63409
1344137304,5810,1023.3499755859375000,41.0495796203613300,570.1713867187500000,4.1702327728271480,55.4588203430175800,54,99,100,77,82,15541,0,0,0,0,2147126080,2147776393,2147568786,2147573741,3532,3,13,28742
1344140904,5810,1022.3800048828125000,40.7750701904296900,569.9710083007812000,4.1764621734619140,55.5008888244628900,56,100,101,77,83,15539,0,0,0,0,2147125083,2147777078,2147573970,2147572937,3140,3,13,26276
1344144504,5808,1023.3599853515625000,40.9860687255859400,570.6378173828125000,4.1557388305664060,55.4747810363769500,56,99,101,77,83,15538,0,0,0,0,2147121590,2147781357,2147569929,2147573193,215,3,13,30416
1344148104,5807,1026.4499511718750000,41.3085594177246100,570.1461181640625000,4.1710219383239750,55.4256706237793000,55,98,101,78,82,15539,0,0,0,0,2147124416,2147776064,2147572617,2147573440,3376,3,13,60558
1344151704,5810,1023.7399902343750000,41.1309509277343750,571.1987915039062000,4.1383018493652340,55.4573783874511700,56,98,101,79,84,15541,0,0,0,0,2147121828,2147776932,2147574610,2147571885,290,3,13,79
1344155304,5808,1019.1599731445312000,40.7367897033691400,570.8225708007812000,4.1499938964843750,55.5123100280761700,54,98,101,78,83,15539,0,0,0,0,2147120118,2147781549,2147571401,2147571190,280,3,13,8143
1344158904,5809,1021.8200073242188000,41.3771209716796900,571.5870971679688000,4.1262297630310060,55.4312782287597660,56,100,102,78,83,15531,0,0,0,0,2147120228,2147782884,2147572553,2147571465,3528,3,13,35753
1344162504,5809,1015.8599853515625000,40.8120994567871100,571.7896728515625000,4.1199321746826170,55.5154991149902340,55,103,102,78,83,15531,0,0,0,0,2147122166,2147771446,2147573805,2147575314,814,3,13,35010
1344166104,5808,1025.5300292968750000,41.8072891235351560,571.5844116210938000,4.1263141632080080,55.3689689636230500,55,98,101,78,84,15527,0,0,0,0,2147122669,2147781138,2147573613,2147572973,727,3,13,4099
1344169704,5812,1024.6800537109375000,41.5744209289550800,571.0064086914062000,4.1442809104919430,55.3945388793945300,55,100,102,78,84,15531,0,0,0,0,2147119222,2147771300,2147575003,2147575597,13,3,13,40441
1344173304,5810,1025.1400146484375000,40.8012504577636700,570.6605224609375000,4.1550331115722660,55.5073814392089840,54,99,99,76,83,15528,0,0,0,0,2147126052,2147776411,2147573659,2147572132,40,3,13,34980
1344176904,5808,1026.5899658203125000,41.6739616394043000,571.2288208007812000,4.1373710632324220,55.3852195739746100,54,97,101,79,83,15529,0,0,0,0,2147124800,2147778569,2147575634,2147575158,3024,2,13,13624
1344180504,5808,1024.1800537109375000,41.2440299987793000,570.6624145507812000,4.1549739837646480,55.4350318908691400,55,98,100,79,83,15532,0,0,0,0,2147121609,2147778733,2147576603,2147574902,216,3,13,51111
1344184104,5807,1024.8000488281250000,41.2279205322265600,571.4371948242188000,4.1308917999267580,55.4450111389160160,55,98,100,78,82,15530,0,0,0,0,2147123840,2147780470,2147572992,2147573293,3530,3,13,46650
1344187704,5810,1022.2500000000000000,41.6790885925293000,571.1439208984375000,4.1400070190429690,55.3819389343261700,55,101,101,80,82,15528,0,0,0,0,2147128548,2147775680,2147573229,2147573586,1349,3,13,57892
1344191304,5808,1027.1600341796875000,40.2344894409179700,570.7573242187500000,4.1520252227783200,55.5868110656738300,55,98,100,77,82,15526,0,0,0,0,2147125220,2147776201,2147574710,2147571227,382,3,13,10827
1344194755,5810,1025.9399414062500000,41.7311706542968750,570.9984130859375000,4.1445331573486330,55.3727798461914060,56,98,101,78,83,15527,0,0,0,0,2147123035,2147777938,2147574226,2147573366,131,3,13,61708
